Year,Month,Day,Hour,Minute,Value (Times are PST for temperature in C)
2009,07,17,00,00,19.90
2009,07,17,00,01,19.90
2009,07,17,00,02,19.80
2009,07,17,00,03,19.80
2009,07,17,00,04,19.80
2009,07,17,00,05,19.80
2009,07,17,00,06,19.80
2009,07,17,00,07,19.70
2009,07,17,00,08,19.70
2009,07,17,00,09,19.70
2009,07,17,00,10,19.70
2009,07,17,00,11,19.70
2009,07,17,00,12,19.60
2009,07,17,00,13,19.60
2009,07,17,00,14,19.60
2009,07,17,00,15,19.60
2009,07,17,00,16,19.60
2009,07,17,00,17,19.50
2009,07,17,00,18,19.50
2009,07,17,00,19,19.50
2009,07,17,00,20,19.40
2009,07,17,00,21,19.40
2009,07,17,00,22,19.40
2009,07,17,00,23,19.40
2009,07,17,00,24,19.40
2009,07,17,00,25,19.40
2009,07,17,00,26,19.40
2009,07,17,00,27,19.40
2009,07,17,00,28,19.40
2009,07,17,00,29,19.40
2009,07,17,00,30,19.40
2009,07,17,00,31,19.30
2009,07,17,00,32,19.30
2009,07,17,00,33,19.30
2009,07,17,00,34,19.30
2009,07,17,00,35,19.30
2009,07,17,00,36,19.30
2009,07,17,00,37,19.30
2009,07,17,00,38,19.30
2009,07,17,00,39,19.30
2009,07,17,00,40,19.30
2009,07,17,00,41,19.30
2009,07,17,00,42,19.30
2009,07,17,00,43,19.20
2009,07,17,00,44,19.20
2009,07,17,00,45,19.20
2009,07,17,00,46,19.20
2009,07,17,00,47,19.20
2009,07,17,00,48,19.20
2009,07,17,00,49,19.20
2009,07,17,00,50,19.10
2009,07,17,00,51,19.10
2009,07,17,00,52,19.10
2009,07,17,00,53,19.10
2009,07,17,00,54,19.00
2009,07,17,00,55,19.00
2009,07,17,00,56,19.00
2009,07,17,00,57,18.90
2009,07,17,00,58,18.90
2009,07,17,00,59,18.90
2009,07,17,01,00,18.90
2009,07,17,01,01,18.80
2009,07,17,01,02,18.80
2009,07,17,01,03,18.80
2009,07,17,01,04,18.80
2009,07,17,01,05,18.80
2009,07,17,01,06,18.80
2009,07,17,01,07,18.70
2009,07,17,01,08,18.70
2009,07,17,01,09,18.70
2009,07,17,01,10,18.70
2009,07,17,01,11,18.70
2009,07,17,01,12,18.60
2009,07,17,01,13,18.60
2009,07,17,01,14,18.60
2009,07,17,01,15,18.60
2009,07,17,01,16,18.60
2009,07,17,01,17,18.60
2009,07,17,01,18,18.50
2009,07,17,01,19,18.50
2009,07,17,01,20,18.50
2009,07,17,01,21,18.50
2009,07,17,01,22,18.40
2009,07,17,01,23,18.40
2009,07,17,01,24,18.40
2009,07,17,01,25,18.40
2009,07,17,01,26,18.40
2009,07,17,01,27,18.40
2009,07,17,01,28,18.30
2009,07,17,01,29,18.30
2009,07,17,01,30,18.30
2009,07,17,01,31,18.30
2009,07,17,01,32,18.30
2009,07,17,01,33,18.30
2009,07,17,01,34,18.30
2009,07,17,01,35,18.30
2009,07,17,01,36,18.20
2009,07,17,01,37,18.20
2009,07,17,01,38,18.20
2009,07,17,01,39,18.20
2009,07,17,01,40,18.20
2009,07,17,01,41,18.20
2009,07,17,01,42,18.20
2009,07,17,01,43,18.20
2009,07,17,01,44,18.10
2009,07,17,01,45,18.10
2009,07,17,01,46,18.10
2009,07,17,01,47,18.10
2009,07,17,01,48,18.10
2009,07,17,01,49,18.10
2009,07,17,01,50,18.10
2009,07,17,01,51,18.10
2009,07,17,01,52,18.10
2009,07,17,01,53,18.10
2009,07,17,01,54,18.10
2009,07,17,01,55,18.10
2009,07,17,01,56,18.10
2009,07,17,01,57,18.10
2009,07,17,01,58,18.10
2009,07,17,01,59,18.10
2009,07,17,02,00,18.10
2009,07,17,02,01,18.00
2009,07,17,02,02,18.00
2009,07,17,02,03,18.00
2009,07,17,02,04,18.00
2009,07,17,02,05,18.00
2009,07,17,02,06,17.90
2009,07,17,02,07,17.90
2009,07,17,02,08,17.90
2009,07,17,02,09,17.90
2009,07,17,02,10,17.90
2009,07,17,02,11,17.80
2009,07,17,02,12,17.80
2009,07,17,02,13,17.80
2009,07,17,02,14,17.80
2009,07,17,02,15,17.70
2009,07,17,02,16,17.70
2009,07,17,02,17,17.70
2009,07,17,02,18,17.60
2009,07,17,02,19,17.60
2009,07,17,02,20,17.60
2009,07,17,02,21,17.60
2009,07,17,02,22,17.50
2009,07,17,02,23,17.50
2009,07,17,02,24,17.50
2009,07,17,02,25,17.40
2009,07,17,02,26,17.40
2009,07,17,02,27,17.40
2009,07,17,02,28,17.40
2009,07,17,02,29,17.40
2009,07,17,02,30,17.30
2009,07,17,02,31,17.30
2009,07,17,02,32,17.30
2009,07,17,02,33,17.30
2009,07,17,02,34,17.30
2009,07,17,02,35,17.30
2009,07,17,02,36,17.20
2009,07,17,02,37,17.20
2009,07,17,02,38,17.20
2009,07,17,02,39,17.20
2009,07,17,02,40,17.20
2009,07,17,02,41,17.20
2009,07,17,02,42,17.20
2009,07,17,02,43,17.20
2009,07,17,02,44,17.20
2009,07,17,02,45,17.20
2009,07,17,02,46,17.20
2009,07,17,02,47,17.20
2009,07,17,02,48,17.20
2009,07,17,02,49,17.20
2009,07,17,02,50,17.10
2009,07,17,02,51,17.10
2009,07,17,02,52,17.10
2009,07,17,02,53,17.10
2009,07,17,02,54,17.10
2009,07,17,02,55,17.10
2009,07,17,02,56,17.10
2009,07,17,02,57,17.10
2009,07,17,02,58,17.00
2009,07,17,02,59,17.00
2009,07,17,03,00,17.00
2009,07,17,03,01,17.00
2009,07,17,03,02,17.00
2009,07,17,03,03,16.90
2009,07,17,03,04,16.90
2009,07,17,03,05,16.90
2009,07,17,03,06,16.90
2009,07,17,03,07,16.90
2009,07,17,03,08,16.90
2009,07,17,03,09,16.90
2009,07,17,03,10,16.80
2009,07,17,03,11,16.80
2009,07,17,03,12,16.80
2009,07,17,03,13,16.80
2009,07,17,03,14,16.80
2009,07,17,03,15,16.80
2009,07,17,03,16,16.80
2009,07,17,03,17,16.80
2009,07,17,03,18,16.80
2009,07,17,03,19,16.80
2009,07,17,03,20,16.80
2009,07,17,03,21,16.80
2009,07,17,03,22,16.80
2009,07,17,03,23,16.70
2009,07,17,03,24,16.70
2009,07,17,03,25,16.70
2009,07,17,03,26,16.70
2009,07,17,03,27,16.70
2009,07,17,03,28,16.70
2009,07,17,03,29,16.70
2009,07,17,03,30,16.70
2009,07,17,03,31,16.70
2009,07,17,03,35,16.60
2009,07,17,03,36,16.60
2009,07,17,03,37,16.60
2009,07,17,03,38,16.60
2009,07,17,03,39,16.60
2009,07,17,03,40,16.50
2009,07,17,03,41,16.50
2009,07,17,03,42,16.50
2009,07,17,03,43,16.50
2009,07,17,03,44,16.40
2009,07,17,03,45,16.40
2009,07,17,03,46,16.40
2009,07,17,03,47,16.40
2009,07,17,03,48,16.40
2009,07,17,03,49,16.40
2009,07,17,03,50,16.40
2009,07,17,03,51,16.40
2009,07,17,03,52,16.30
2009,07,17,03,53,16.30
2009,07,17,03,54,16.30
2009,07,17,03,55,16.30
2009,07,17,03,56,16.30
2009,07,17,03,57,16.30
2009,07,17,03,58,16.20
2009,07,17,03,59,16.20
2009,07,17,04,00,16.20
2009,07,17,04,01,16.20
2009,07,17,04,02,16.20
2009,07,17,04,03,16.20
2009,07,17,04,04,16.20
2009,07,17,04,05,16.10
2009,07,17,04,06,16.10
2009,07,17,04,07,16.10
2009,07,17,04,08,16.10
2009,07,17,04,09,16.10
2009,07,17,04,10,16.00
2009,07,17,04,11,16.00
2009,07,17,04,12,16.00
2009,07,17,04,13,16.00
2009,07,17,04,14,16.00
2009,07,17,04,15,16.00
2009,07,17,04,16,15.90
2009,07,17,04,17,15.90
2009,07,17,04,18,15.90
2009,07,17,04,19,15.90
2009,07,17,04,20,15.90
2009,07,17,04,21,15.90
2009,07,17,04,22,16.00
2009,07,17,04,23,16.00
2009,07,17,04,24,16.00
2009,07,17,04,25,16.10
2009,07,17,04,26,16.10
2009,07,17,04,27,16.10
2009,07,17,04,28,16.10
2009,07,17,04,29,16.10
2009,07,17,04,30,16.10
2009,07,17,04,31,16.10
2009,07,17,04,32,16.10
2009,07,17,04,33,16.10
2009,07,17,04,34,16.10
2009,07,17,04,35,16.00
2009,07,17,04,36,16.00
2009,07,17,04,37,16.00
2009,07,17,04,38,16.00
2009,07,17,04,39,16.00
2009,07,17,04,40,16.00
2009,07,17,04,41,16.00
2009,07,17,04,42,16.00
2009,07,17,04,43,16.00
2009,07,17,04,44,16.00
2009,07,17,04,45,15.90
2009,07,17,04,46,15.90
2009,07,17,04,47,15.90
2009,07,17,04,48,15.90
2009,07,17,04,49,15.90
2009,07,17,04,50,15.80
2009,07,17,04,51,15.80
2009,07,17,04,52,15.70
2009,07,17,04,53,15.70
2009,07,17,04,54,15.70
2009,07,17,04,55,15.60
2009,07,17,04,56,15.60
2009,07,17,04,57,15.50
2009,07,17,04,58,15.50
2009,07,17,04,59,15.40
2009,07,17,05,00,15.40
2009,07,17,05,01,15.30
2009,07,17,05,02,15.30
2009,07,17,05,03,15.30
2009,07,17,05,04,15.20
2009,07,17,05,05,15.20
2009,07,17,05,06,15.20
2009,07,17,05,07,15.10
2009,07,17,05,08,15.10
2009,07,17,05,09,15.10
2009,07,17,05,10,15.00
2009,07,17,05,11,15.00
2009,07,17,05,12,15.00
2009,07,17,05,13,15.00
2009,07,17,05,14,15.00
2009,07,17,05,15,15.00
2009,07,17,05,16,15.00
2009,07,17,05,17,15.00
2009,07,17,05,18,15.00
2009,07,17,05,19,15.00
2009,07,17,05,20,14.90
2009,07,17,05,21,14.90
2009,07,17,05,22,14.80
2009,07,17,05,23,14.80
2009,07,17,05,24,14.70
2009,07,17,05,25,14.70
2009,07,17,05,26,14.60
2009,07,17,05,27,14.50
2009,07,17,05,28,14.40
2009,07,17,05,29,14.40
2009,07,17,05,30,14.40
2009,07,17,05,31,14.30
2009,07,17,05,32,14.30
2009,07,17,05,33,14.20
2009,07,17,05,34,14.10
2009,07,17,05,35,14.10
2009,07,17,05,36,14.10
2009,07,17,05,37,14.00
2009,07,17,05,38,14.00
2009,07,17,05,39,13.90
2009,07,17,05,40,13.90
2009,07,17,05,41,13.80
2009,07,17,05,42,13.80
2009,07,17,05,43,13.70
2009,07,17,05,44,13.70
2009,07,17,05,45,13.70
2009,07,17,05,46,13.70
2009,07,17,05,47,13.60
2009,07,17,05,48,13.60
2009,07,17,05,49,13.60
2009,07,17,05,50,13.60
2009,07,17,05,51,13.50
2009,07,17,05,52,13.50
2009,07,17,05,53,13.50
2009,07,17,05,54,13.50
2009,07,17,05,55,13.50
2009,07,17,05,56,13.50
2009,07,17,05,57,13.50
2009,07,17,05,58,13.50
2009,07,17,05,59,13.60
2009,07,17,06,00,13.60
2009,07,17,06,01,13.60
2009,07,17,06,02,13.70
2009,07,17,06,03,13.70
2009,07,17,06,04,13.70
2009,07,17,06,05,13.70
2009,07,17,06,06,13.70
2009,07,17,06,07,13.70
2009,07,17,06,08,13.80
2009,07,17,06,09,13.80
2009,07,17,06,10,13.80
2009,07,17,06,11,13.80
2009,07,17,06,12,13.80
2009,07,17,06,13,13.80
2009,07,17,06,14,13.80
2009,07,17,06,15,13.80
2009,07,17,06,16,13.90
2009,07,17,06,17,13.90
2009,07,17,06,18,13.90
2009,07,17,06,19,13.90
2009,07,17,06,20,13.90
2009,07,17,06,21,13.90
2009,07,17,06,22,13.90
2009,07,17,06,23,13.90
2009,07,17,06,24,13.90
2009,07,17,06,25,13.90
2009,07,17,06,26,13.90
2009,07,17,06,27,13.90
2009,07,17,06,28,13.90
2009,07,17,06,29,13.90
2009,07,17,06,30,13.90
2009,07,17,06,31,14.00
2009,07,17,06,32,14.00
2009,07,17,06,33,14.00
2009,07,17,06,34,14.00
2009,07,17,06,35,14.10
2009,07,17,06,36,14.10
2009,07,17,06,37,14.10
2009,07,17,06,38,14.20
2009,07,17,06,39,14.20
2009,07,17,06,40,14.20
2009,07,17,06,41,14.20
2009,07,17,06,42,14.30
2009,07,17,06,43,14.30
2009,07,17,06,44,14.40
2009,07,17,06,45,14.40
2009,07,17,06,46,14.40
2009,07,17,06,47,14.50
2009,07,17,06,48,14.60
2009,07,17,06,49,14.70
2009,07,17,06,50,14.70
2009,07,17,06,51,14.80
2009,07,17,06,52,14.90
2009,07,17,06,53,15.00
2009,07,17,06,54,15.00
2009,07,17,06,55,15.00
2009,07,17,06,56,15.00
2009,07,17,06,57,15.10
2009,07,17,06,58,15.20
2009,07,17,06,59,15.20
2009,07,17,07,00,15.30
2009,07,17,07,01,15.30
2009,07,17,07,02,15.40
2009,07,17,07,03,15.40
2009,07,17,07,04,15.50
2009,07,17,07,05,15.50
2009,07,17,07,06,15.50
2009,07,17,07,07,15.60
2009,07,17,07,08,15.60
2009,07,17,07,09,15.60
2009,07,17,07,10,15.60
2009,07,17,07,11,15.70
2009,07,17,07,12,15.70
2009,07,17,07,13,15.70
2009,07,17,07,14,15.70
2009,07,17,07,15,15.70
2009,07,17,07,16,15.70
2009,07,17,07,17,15.80
2009,07,17,07,18,15.80
2009,07,17,07,19,15.80
2009,07,17,07,20,15.80
2009,07,17,07,21,15.80
2009,07,17,07,22,15.80
2009,07,17,07,23,15.80
2009,07,17,07,24,15.80
2009,07,17,07,25,15.90
2009,07,17,07,26,15.90
2009,07,17,07,27,15.90
2009,07,17,07,28,15.90
2009,07,17,07,29,16.00
2009,07,17,07,30,16.00
2009,07,17,07,31,16.10
2009,07,17,07,32,16.10
2009,07,17,07,33,16.10
2009,07,17,07,34,16.10
2009,07,17,07,35,16.10
2009,07,17,07,36,16.20
2009,07,17,07,37,16.20
2009,07,17,07,38,16.20
2009,07,17,07,39,16.20
2009,07,17,07,40,16.20
2009,07,17,07,41,16.30
2009,07,17,07,42,16.30
2009,07,17,07,43,16.30
2009,07,17,07,44,16.30
2009,07,17,07,45,16.30
2009,07,17,07,46,16.30
2009,07,17,07,47,16.30
2009,07,17,07,48,16.20
2009,07,17,07,49,16.20
2009,07,17,07,50,16.20
2009,07,17,07,51,16.20
2009,07,17,07,52,16.20
2009,07,17,07,53,16.20
2009,07,17,07,54,16.20
2009,07,17,07,55,16.20
2009,07,17,07,56,16.20
2009,07,17,07,57,16.30
2009,07,17,07,58,16.30
2009,07,17,07,59,16.40
2009,07,17,08,00,16.50
2009,07,17,08,01,16.60
2009,07,17,08,02,16.70
2009,07,17,08,03,16.80
2009,07,17,08,04,17.00
2009,07,17,08,05,17.10
2009,07,17,08,06,17.20
2009,07,17,08,07,17.30
2009,07,17,08,08,17.40
2009,07,17,08,09,17.50
2009,07,17,08,10,17.60
2009,07,17,08,11,17.70
2009,07,17,08,12,17.80
2009,07,17,08,13,17.80
2009,07,17,08,14,17.90
2009,07,17,08,15,18.10
2009,07,17,08,16,18.20
2009,07,17,08,17,18.30
2009,07,17,08,18,18.40
2009,07,17,08,19,18.50
2009,07,17,08,20,18.60
2009,07,17,08,21,18.70
2009,07,17,08,22,18.80
2009,07,17,08,23,18.80
2009,07,17,08,24,18.80
2009,07,17,08,25,18.80
2009,07,17,08,26,18.80
2009,07,17,08,27,18.80
2009,07,17,08,28,18.80
2009,07,17,08,29,18.80
2009,07,17,08,30,18.80
2009,07,17,08,31,18.80
2009,07,17,08,32,18.80
2009,07,17,08,33,18.80
2009,07,17,08,34,18.80
2009,07,17,08,35,18.80
2009,07,17,08,36,18.80
2009,07,17,08,37,18.80
2009,07,17,08,38,18.80
2009,07,17,08,39,18.80
2009,07,17,08,40,18.90
2009,07,17,08,41,18.90
2009,07,17,08,42,19.00
2009,07,17,08,43,19.00
2009,07,17,08,44,19.10
2009,07,17,08,45,19.10
2009,07,17,08,46,19.10
2009,07,17,08,47,19.10
2009,07,17,08,48,19.10
2009,07,17,08,49,19.20
2009,07,17,08,50,19.10
2009,07,17,08,51,19.10
2009,07,17,08,52,19.10
2009,07,17,08,53,19.10
2009,07,17,08,54,19.10
2009,07,17,08,55,19.10
2009,07,17,08,56,19.10
2009,07,17,08,57,19.10
2009,07,17,08,58,19.10
2009,07,17,08,59,19.10
2009,07,17,09,00,19.00
2009,07,17,09,01,19.00
2009,07,17,09,02,18.90
2009,07,17,09,03,19.00
2009,07,17,09,04,18.90
2009,07,17,09,05,18.90
2009,07,17,09,06,18.90
2009,07,17,09,07,18.90
2009,07,17,09,08,18.90
2009,07,17,09,09,19.00
2009,07,17,09,10,19.00
2009,07,17,09,11,19.10
2009,07,17,09,12,19.20
2009,07,17,09,13,19.20
2009,07,17,09,14,19.20
2009,07,17,09,15,19.20
2009,07,17,09,16,19.30
2009,07,17,09,17,19.30
2009,07,17,09,18,19.40
2009,07,17,09,19,19.40
2009,07,17,09,20,19.40
2009,07,17,09,21,19.30
2009,07,17,09,22,19.20
2009,07,17,09,23,19.20
2009,07,17,09,24,19.20
2009,07,17,09,25,19.30
2009,07,17,09,26,19.30
2009,07,17,09,27,19.40
2009,07,17,09,28,19.50
2009,07,17,09,29,19.50
2009,07,17,09,30,19.60
2009,07,17,09,31,19.70
2009,07,17,09,32,19.70
2009,07,17,09,33,19.80
2009,07,17,09,34,19.80
2009,07,17,09,35,19.90
2009,07,17,09,36,19.90
2009,07,17,09,37,19.90
2009,07,17,09,38,19.80
2009,07,17,09,39,19.90
2009,07,17,09,40,19.80
2009,07,17,09,41,19.80
2009,07,17,09,42,19.80
2009,07,17,09,43,19.80
2009,07,17,09,44,19.80
2009,07,17,09,45,19.80
2009,07,17,09,46,19.90
2009,07,17,09,47,19.90
2009,07,17,09,48,20.00
2009,07,17,09,49,20.00
2009,07,17,09,50,20.10
2009,07,17,09,51,20.20
2009,07,17,09,52,20.30
2009,07,17,09,53,20.30
2009,07,17,09,54,20.30
2009,07,17,09,55,20.30
2009,07,17,09,56,20.20
2009,07,17,09,57,20.20
2009,07,17,09,58,20.20
2009,07,17,09,59,20.20
2009,07,17,10,00,20.20
2009,07,17,10,01,20.20
2009,07,17,10,02,20.30
2009,07,17,10,03,20.40
2009,07,17,10,04,20.40
2009,07,17,10,05,20.50
2009,07,17,10,06,20.60
2009,07,17,10,07,20.60
2009,07,17,10,08,20.70
2009,07,17,10,09,20.70
2009,07,17,10,10,20.70
2009,07,17,10,11,20.70
2009,07,17,10,12,20.80
2009,07,17,10,13,20.80
2009,07,17,10,14,20.70
2009,07,17,10,15,20.70
2009,07,17,10,16,20.70
2009,07,17,10,17,20.70
2009,07,17,10,18,20.70
2009,07,17,10,19,20.70
2009,07,17,10,20,20.70
2009,07,17,10,21,20.80
2009,07,17,10,22,20.90
2009,07,17,10,23,20.90
2009,07,17,10,24,21.00
2009,07,17,10,25,21.10
2009,07,17,10,26,21.20
2009,07,17,10,27,21.30
2009,07,17,10,28,21.30
2009,07,17,10,29,21.30
2009,07,17,10,30,21.40
2009,07,17,10,31,21.50
2009,07,17,10,32,21.50
2009,07,17,10,33,21.60
2009,07,17,10,34,21.60
2009,07,17,10,35,21.70
2009,07,17,10,36,21.80
2009,07,17,10,37,21.90
2009,07,17,10,38,22.00
2009,07,17,10,39,22.10
2009,07,17,10,40,22.20
2009,07,17,10,41,22.30
2009,07,17,10,42,22.30
2009,07,17,10,43,22.40
2009,07,17,10,44,22.40
2009,07,17,10,45,22.40
2009,07,17,10,46,22.40
2009,07,17,10,47,22.40
2009,07,17,10,48,22.30
2009,07,17,10,49,22.30
2009,07,17,10,50,22.20
2009,07,17,10,51,22.20
2009,07,17,10,52,22.20
2009,07,17,10,53,22.20
2009,07,17,10,54,22.20
2009,07,17,10,55,22.20
2009,07,17,10,56,22.30
2009,07,17,10,57,22.30
2009,07,17,10,58,22.40
2009,07,17,10,59,22.40
2009,07,17,11,00,22.50
2009,07,17,11,01,22.50
2009,07,17,11,02,22.50
2009,07,17,11,03,22.50
2009,07,17,11,04,22.50
2009,07,17,11,05,22.60
2009,07,17,11,06,22.60
2009,07,17,11,07,22.60
2009,07,17,11,08,22.60
2009,07,17,11,09,22.70
2009,07,17,11,10,22.70
2009,07,17,11,11,22.70
2009,07,17,11,12,22.70
2009,07,17,11,13,22.70
2009,07,17,11,14,22.70
2009,07,17,11,15,22.80
2009,07,17,11,16,22.80
2009,07,17,11,17,22.80
2009,07,17,11,18,22.90
2009,07,17,11,19,22.90
2009,07,17,11,20,22.90
2009,07,17,11,21,23.00
2009,07,17,11,22,23.00
2009,07,17,11,23,23.10
2009,07,17,11,24,23.10
2009,07,17,11,25,23.10
2009,07,17,11,26,23.10
2009,07,17,11,27,23.20
2009,07,17,11,28,23.20
2009,07,17,11,29,23.20
2009,07,17,11,30,23.20
2009,07,17,11,31,23.10
2009,07,17,11,32,23.10
2009,07,17,11,33,23.10
2009,07,17,11,34,23.10
2009,07,17,11,35,23.10
2009,07,17,11,36,23.20
2009,07,17,11,37,23.20
2009,07,17,11,38,23.20
2009,07,17,11,39,23.20
2009,07,17,11,40,23.20
2009,07,17,11,41,23.20
2009,07,17,11,42,23.20
2009,07,17,11,43,23.20
2009,07,17,11,44,23.20
2009,07,17,11,45,23.20
2009,07,17,11,46,23.20
2009,07,17,11,47,23.20
2009,07,17,11,48,23.20
2009,07,17,11,49,23.20
2009,07,17,11,50,23.20
2009,07,17,11,51,23.10
2009,07,17,11,52,23.10
2009,07,17,11,53,23.10
2009,07,17,11,54,23.10
2009,07,17,11,55,23.10
2009,07,17,11,56,23.10
2009,07,17,11,57,23.10
2009,07,17,11,58,23.00
2009,07,17,11,59,23.00
2009,07,17,12,00,22.90
2009,07,17,12,01,23.00
2009,07,17,12,02,23.00
2009,07,17,12,03,23.10
2009,07,17,12,04,23.20
2009,07,17,12,05,23.30
2009,07,17,12,06,23.40
2009,07,17,12,07,23.40
2009,07,17,12,08,23.50
2009,07,17,12,09,23.60
2009,07,17,12,10,23.70
2009,07,17,12,11,23.70
2009,07,17,12,12,23.80
2009,07,17,12,13,23.80
2009,07,17,12,14,23.80
2009,07,17,12,15,23.80
2009,07,17,12,16,23.80
2009,07,17,12,17,23.80
2009,07,17,12,18,23.70
2009,07,17,12,19,23.60
2009,07,17,12,20,23.50
2009,07,17,12,21,23.50
2009,07,17,12,22,23.40
2009,07,17,12,23,23.40
2009,07,17,12,24,23.40
2009,07,17,12,25,23.40
2009,07,17,12,26,23.40
2009,07,17,12,27,23.40
2009,07,17,12,28,23.40
2009,07,17,12,29,23.40
2009,07,17,12,30,23.40
2009,07,17,12,31,23.40
2009,07,17,12,32,23.30
2009,07,17,12,33,23.30
2009,07,17,12,34,23.30
2009,07,17,12,35,23.20
2009,07,17,12,36,23.20
2009,07,17,12,37,23.20
2009,07,17,12,38,23.20
2009,07,17,12,39,23.20
2009,07,17,12,40,23.30
2009,07,17,12,41,23.40
2009,07,17,12,42,23.50
2009,07,17,12,43,23.60
2009,07,17,12,44,23.60
2009,07,17,12,45,23.60
2009,07,17,12,46,23.60
2009,07,17,12,47,23.70
2009,07,17,12,48,23.80
2009,07,17,12,49,24.00
2009,07,17,12,50,24.10
2009,07,17,12,51,24.10
2009,07,17,12,52,24.10
2009,07,17,12,53,24.10
2009,07,17,12,54,24.00
2009,07,17,12,55,24.00
2009,07,17,12,56,24.00
2009,07,17,12,57,23.90
2009,07,17,12,58,23.80
2009,07,17,12,59,23.80
2009,07,17,13,00,23.70
2009,07,17,13,01,23.70
2009,07,17,13,02,23.70
2009,07,17,13,03,23.60
2009,07,17,13,04,23.50
2009,07,17,13,05,23.40
2009,07,17,13,06,23.40
2009,07,17,13,07,23.40
2009,07,17,13,08,23.40
2009,07,17,13,09,23.40
2009,07,17,13,10,23.40
2009,07,17,13,11,23.50
2009,07,17,13,12,23.50
2009,07,17,13,13,23.50
2009,07,17,13,14,23.50
2009,07,17,13,15,23.60
2009,07,17,13,16,23.60
2009,07,17,13,17,23.80
2009,07,17,13,18,23.90
2009,07,17,13,19,23.90
2009,07,17,13,20,23.80
2009,07,17,13,21,23.70
2009,07,17,13,22,23.70
2009,07,17,13,23,23.70
2009,07,17,13,24,23.80
2009,07,17,13,25,23.80
2009,07,17,13,26,23.90
2009,07,17,13,27,23.90
2009,07,17,13,28,23.80
2009,07,17,13,29,23.80
2009,07,17,13,30,23.80
2009,07,17,13,31,23.90
2009,07,17,13,32,24.00
2009,07,17,13,33,24.20
2009,07,17,13,34,24.50
2009,07,17,13,35,24.90
2009,07,17,13,36,25.30
2009,07,17,13,37,25.70
2009,07,17,13,38,26.10
2009,07,17,13,39,26.40
2009,07,17,13,40,26.70
2009,07,17,13,41,26.90
2009,07,17,13,42,27.20
2009,07,17,13,43,27.50
2009,07,17,13,44,27.70
2009,07,17,13,45,27.80
2009,07,17,13,46,27.90
2009,07,17,13,47,28.00
2009,07,17,13,48,28.10
2009,07,17,13,49,28.10
2009,07,17,13,50,28.10
2009,07,17,13,51,28.20
2009,07,17,13,52,28.20
2009,07,17,13,53,28.30
2009,07,17,13,54,28.40
2009,07,17,13,55,28.50
2009,07,17,13,56,28.60
2009,07,17,13,57,28.60
2009,07,17,13,58,28.70
2009,07,17,13,59,28.80
2009,07,17,14,00,28.90
2009,07,17,14,01,29.00
2009,07,17,14,02,29.00
2009,07,17,14,03,29.10
2009,07,17,14,04,29.20
2009,07,17,14,05,29.20
2009,07,17,14,06,29.20
2009,07,17,14,07,29.20
2009,07,17,14,08,29.30
2009,07,17,14,09,29.30
2009,07,17,14,10,29.30
2009,07,17,14,11,29.40
2009,07,17,14,12,29.40
2009,07,17,14,13,29.40
2009,07,17,14,14,29.40
2009,07,17,14,15,29.40
2009,07,17,14,16,29.40
2009,07,17,14,17,29.40
2009,07,17,14,18,29.30
2009,07,17,14,19,29.30
2009,07,17,14,20,29.30
2009,07,17,14,21,29.20
2009,07,17,14,22,29.20
2009,07,17,14,23,29.20
2009,07,17,14,24,29.10
2009,07,17,14,25,29.10
2009,07,17,14,26,29.10
2009,07,17,14,27,29.00
2009,07,17,14,28,29.00
2009,07,17,14,29,28.90
2009,07,17,14,30,28.90
2009,07,17,14,31,28.90
2009,07,17,14,32,28.90
2009,07,17,14,33,28.90
2009,07,17,14,34,29.00
2009,07,17,14,35,29.10
2009,07,17,14,36,29.20
2009,07,17,14,37,29.30
2009,07,17,14,38,29.30
2009,07,17,14,39,29.40
2009,07,17,14,40,29.40
2009,07,17,14,41,29.30
2009,07,17,14,42,29.30
2009,07,17,14,43,29.30
2009,07,17,14,44,29.30
2009,07,17,14,45,29.30
2009,07,17,14,46,29.40
2009,07,17,14,47,29.40
2009,07,17,14,48,29.40
2009,07,17,14,49,29.40
2009,07,17,14,50,29.40
2009,07,17,14,51,29.50
2009,07,17,14,52,29.60
2009,07,17,14,53,29.60
2009,07,17,14,54,29.50
2009,07,17,14,55,29.40
2009,07,17,14,56,29.40
2009,07,17,14,57,29.50
2009,07,17,14,58,29.50
2009,07,17,14,59,29.60
2009,07,17,15,00,29.60
2009,07,17,15,01,29.60
2009,07,17,15,02,29.60
2009,07,17,15,03,29.60
2009,07,17,15,04,29.60
2009,07,17,15,05,29.60
2009,07,17,15,06,29.60
2009,07,17,15,07,29.70
2009,07,17,15,08,29.70
2009,07,17,15,09,29.80
2009,07,17,15,10,29.70
2009,07,17,15,11,29.70
2009,07,17,15,12,29.70
2009,07,17,15,13,29.70
2009,07,17,15,14,29.60
2009,07,17,15,15,29.60
2009,07,17,15,16,29.50
2009,07,17,15,17,29.40
2009,07,17,15,18,29.30
2009,07,17,15,19,29.30
2009,07,17,15,20,29.20
2009,07,17,15,21,29.20
2009,07,17,15,22,29.20
2009,07,17,15,23,29.20
2009,07,17,15,24,29.20
2009,07,17,15,25,29.20
2009,07,17,15,26,29.30
2009,07,17,15,27,29.40
2009,07,17,15,28,29.40
2009,07,17,15,29,29.50
2009,07,17,15,30,29.60
2009,07,17,15,31,29.70
2009,07,17,15,32,29.70
2009,07,17,15,33,29.70
2009,07,17,15,34,29.70
2009,07,17,15,35,29.70
2009,07,17,15,36,29.80
2009,07,17,15,37,29.90
2009,07,17,15,38,29.90
2009,07,17,15,39,29.90
2009,07,17,15,40,29.90
2009,07,17,15,41,29.90
2009,07,17,15,42,29.90
2009,07,17,15,43,29.80
2009,07,17,15,44,29.70
2009,07,17,15,45,29.70
2009,07,17,15,46,29.60
2009,07,17,15,47,29.60
2009,07,17,15,48,29.60
2009,07,17,15,49,29.60
2009,07,17,15,50,29.60
2009,07,17,15,51,29.70
2009,07,17,15,52,29.70
2009,07,17,15,53,29.80
2009,07,17,15,54,29.90
2009,07,17,15,55,29.90
2009,07,17,15,56,29.80
2009,07,17,15,57,29.90
2009,07,17,15,58,29.90
2009,07,17,15,59,29.80
2009,07,17,16,00,29.90
2009,07,17,16,01,29.90
2009,07,17,16,02,30.00
2009,07,17,16,03,30.00
2009,07,17,16,04,30.00
2009,07,17,16,05,29.90
2009,07,17,16,06,29.80
2009,07,17,16,07,29.80
2009,07,17,16,08,29.80
2009,07,17,16,09,29.70
2009,07,17,16,10,29.60
2009,07,17,16,11,29.50
2009,07,17,16,12,29.40
2009,07,17,16,13,29.40
2009,07,17,16,14,29.50
2009,07,17,16,15,29.40
2009,07,17,16,16,29.30
2009,07,17,16,17,29.30
2009,07,17,16,18,29.20
2009,07,17,16,19,29.30
2009,07,17,16,20,29.20
2009,07,17,16,21,29.20
2009,07,17,16,22,29.20
2009,07,17,16,23,29.20
2009,07,17,16,24,29.30
2009,07,17,16,25,29.30
2009,07,17,16,26,29.40
2009,07,17,16,27,29.40
2009,07,17,16,28,29.40
2009,07,17,16,29,29.40
2009,07,17,16,30,29.50
2009,07,17,16,31,29.60
2009,07,17,16,32,29.60
2009,07,17,16,33,29.60
2009,07,17,16,34,29.50
2009,07,17,16,35,29.50
2009,07,17,16,36,29.40
2009,07,17,16,37,29.40
2009,07,17,16,38,29.40
2009,07,17,16,39,29.50
2009,07,17,16,40,29.50
2009,07,17,16,41,29.60
2009,07,17,16,42,29.60
2009,07,17,16,43,29.70
2009,07,17,16,44,29.70
2009,07,17,16,45,29.70
2009,07,17,16,46,29.80
2009,07,17,16,47,29.80
2009,07,17,16,48,29.70
2009,07,17,16,49,29.60
2009,07,17,16,50,29.50
2009,07,17,16,51,29.50
2009,07,17,16,52,29.40
2009,07,17,16,53,29.40
2009,07,17,16,54,29.40
2009,07,17,16,55,29.40
2009,07,17,16,56,29.30
2009,07,17,16,57,29.30
2009,07,17,16,58,29.20
2009,07,17,16,59,29.20
2009,07,17,17,00,29.10
2009,07,17,17,01,29.10
2009,07,17,17,02,29.10
2009,07,17,17,03,29.00
2009,07,17,17,04,28.90
2009,07,17,17,05,28.80
2009,07,17,17,06,28.80
2009,07,17,17,07,28.80
2009,07,17,17,08,28.80
2009,07,17,17,09,28.90
2009,07,17,17,10,28.90
2009,07,17,17,11,28.80
2009,07,17,17,12,28.70
2009,07,17,17,13,28.60
2009,07,17,17,14,28.50
2009,07,17,17,15,28.50
2009,07,17,17,16,28.40
2009,07,17,17,17,28.40
2009,07,17,17,18,28.30
2009,07,17,17,19,28.10
2009,07,17,17,20,28.00
2009,07,17,17,21,28.00
2009,07,17,17,22,27.90